PulseSat

PulseSat

GSAT0202 (PRN E14)

Last updated on Jan. 16, 2019, 2:58 a.m. UTC

1 40129U 14050B   19013.98646926 -.00000074  00000-0  00000-0 0  9992
2 40129  50.5859  21.1738 1657444  83.4686 295.1262  1.85520356 30182
UTC
Height (km)
Latitude
Longitude
Inclination
Orbital Period

Next 30 passes for location: Hong Kong

Rise time Rise Azimuth (degrees) Set time Set Azimuth (degrees) Duration Max altitude (degrees)

No matching passes for this satellites

PulseSat

PulseSat is the new satellites software and hardware trackering solution by Pulsely.
Satellite Two Line Element Set source: US Air Force Space Command

Download PulseSat for iOS
© 2017 Pulsely Limited